Regional Weather Roundup
Issued by NWS Upton, NY

Current Version | Previous Version | Text Only | Print | Product List | Glossary On
Versions: 1 2 3 4 5 6 7 8 9 10 11 12 13 14 15 16 17 18 19 20 21 22 23 24 25 26 27 28 29 30 31 32 33 34 35 36 37 38 39 40 41 42 43 44 45 46 47 48 49 50
387 ASUS41 KOKX 242008 RWROKX REGIONAL WEATHER ROUNDUP NATIONAL WEATHER SERVICE NEW YORK NY 400 PM EDT FRI MAR 24 2017 NOTE: "FAIR" INDICATES FEW OR NO CLOUDS BELOW 12,000 FEET WITH NO SIGNIFICANT WEATHER AND/OR OBSTRUCTIONS TO VISIBILITY. NYZ071-072-176-178-NJZ106-104-242100- NEW YORK CITY METRO AREA CITY SKY/WX TMP DP RH WIND PRES REMARKS Central Park MOSUNNY 51 29 42 MISG 30.19F Wall St Helipt PTCLDY 52 32 46 W10 30.19F LaGuardia APRT PTSUNNY 54 28 36 SW15G26 30.17F Kennedy INTL PTSUNNY 48 38 68 S18 30.20F Breezy Point N/A 46 N/A N/A S8 N/A Newark/Liberty PTSUNNY 54 30 40 SW18 30.17F Teterboro MOSUNNY 53 31 42 SW18 30.17F $$ NYZ177-179-078>081-242100- LONG ISLAND NEW YORK CITY SKY/WX TMP DP RH WIND PRES REMARKS Jones Beach N/A 45 N/A N/A SW17G24 N/A Matinecock PT N/A 45 N/A N/A SW12G17 N/A Farmingdale PTSUNNY 47 33 58 SW16G25 30.18F MacArthur/ISP CLOUDY 45 31 58 S17G24 30.19F Shirley CLOUDY 44 32 62 S16G29 30.21F Westhampton CLOUDY 44 30 57 SW16G25 30.22F East Hampton CLOUDY 43 32 65 SW16G24 30.21F Montauk N/A 44 36 73 S13G23 30.22F $$ NYZ052-065-067-242100- HUDSON VALLEY CITY SKY/WX TMP DP RH WIND PRES REMARKS White Plains MOSUNNY 47 32 56 S9 30.15F Newburgh PTSUNNY 41 34 75 SW12 30.18F Montgomery CLOUDY 43 34 70 SW12 30.15F Poughkeepsie CLOUDY 42 30 62 SW8 30.17F Albany CLOUDY 39 30 70 S15 30.09F WCI 31 $$ NJZ001-105-106-008-010-013-015-019>022-104-242100- NEW JERSEY CITY SKY/WX TMP DP RH WIND PRES REMARKS Newark/Liberty PTSUNNY 54 30 40 SW18 30.17F Teterboro MOSUNNY 53 31 42 SW18 30.17F Caldwell SUNNY 51 30 44 SW8 30.17F Somerville SUNNY 55 31 39 SW10G18 30.16F Linden N/A 55 30 38 W8 30.17F Sussex CLOUDY 45 33 63 SW8 30.15F Andover N/A 46 30 53 SW10 30.15F Trenton SUNNY 56 34 43 SW18G25 30.18F Millville CLOUDY 60 33 36 W17G24 30.25F Atlantic City SUNNY 55 34 45 S15G21 30.25F Wrightstown SUNNY 60 32 35 SW20G28 30.16F Toms River MOSUNNY 60 31 33 SW18G32 30.21F Belmar MOSUNNY 57 29 34 S18G24 30.19F $$ PAZ047>061-062-071-242100- EASTERN PENNSYLVANIA CITY SKY/WX TMP DP RH WIND PRES REMARKS Philadelphia PTSUNNY 57 33 40 SW15G25 30.22F Allentown MOSUNNY 53 31 42 S12 30.17F Scranton CLOUDY 46 34 62 W8 30.11F $$ CTZ002-004>006-009-010-012-RIZ004-006-007-MAZ004-011-015-242100- SOUTHERN NEW ENGLAND IN CT CITY SKY/WX TMP DP RH WIND PRES REMARKS Bradley INTL CLOUDY 43 28 55 SW17G23 30.15F Hartford CLOUDY 44 29 55 S9 30.17F Danbury CLOUDY 45 29 53 SW6 30.16F Wtrbury/Oxford CLOUDY 43 27 52 SW8G20 30.15F Bridgeport CLOUDY 46 32 58 SW9 30.19F Meriden CLOUDY 46 28 49 S14 30.16F New Haven CLOUDY 44 31 60 SW10 30.19F Chester NOT AVBL Groton CLOUDY 43 32 65 SW14 30.20F Wilimantic CLOUDY 44 26 49 SW9G18 30.17F IN RI CITY SKY/WX TMP DP RH WIND PRES REMARKS Providence CLOUDY 44 27 51 SW20G26 30.19F Block Island CLOUDY 43 35 73 SW22G28 30.22F Westerly CLOUDY 44 35 70 SW17G25 30.21F IN MA CITY SKY/WX TMP DP RH WIND PRES REMARKS Boston LGT RAIN 38 34 85 S9 30.17F WCI 31 Worcester CLOUDY 37 24 59 SW21 30.10F WCI 26 Westfield CLOUDY 41 29 62 S12 30.13F Provincetown LGT RAIN 38 34 85 S15G22 30.21F WCI 29 Nantucket CLOUDY 41 33 73 S20 30.26F $$ ANZ330-335-338-340-345-350-353-355-242100- COASTAL MARINE OBSERVATIONS STATION/POSITION TIME SKY/WX TEMP WIND PRES VSBY WAVE AIR SEA DIR/SP/G HT/PER (UTC) (F) (DEG/KT/KT) (MB) (MI) (FT/S) NY HARB ENTRANCE 1850 43 41 190/ 21/ 29 1023.7 6/ 5 20 S FIRE ISLAND 1950 43 40 200/ 23/ 25 1022.5 6/ 6 GREAT SOUTH BAY NOT AVBL 23 SSW MONTAUK P 1850 44 42 1025.2 6/ 6 15 E BARNEGAT LI 1930 43 N/A 5/ 5 HUDSON CANYON 1850 47 45 210/ 19/ 21 1026.9 4/ 5 KINGS POINT 1936 44 39 1021.8 EXECUTION ROCKS NOT AVBL CENTRAL LI SOUND 1930 42 220/ 12/ 14 N/A 3/ 4 EASTERN LI SOUND NOT AVBL ROBBINS REEF 1936 51 220/ 16/ 21 1022.2 $$ >>>>>>>>>>>>>>>>>>>>>>>>>>>> KEY <<<<<<<<<<<<<<<<<<<<<<<<<<< > < > SKY/WX - Sky Condition/Present Weather < > TMP - Temperature in Fahrenheit < > DP - Dew Point in Fahrenheit < > RH - Relative Humidity in Percent < > WIND - Direction (from) and Speed in MPH < > PRES - Mean Sea Level Pressure (inches of Hg) < > WCI - Wind Chill Index < > VSB - VISIBILITY IN MILES < > HX - HEAT INDEX < > TC - TEMPERATURE IN CELSIUS < > VRB - VARIABLE WIND DIRECTION < > < >>>>>>>>>>>>>>>>>>>>>>>>>>>> KEY <<<<<<<<<<<<<<<<<<<<<<<<<<<

USA.gov is the U.S. government's official web portal to all federal, state and local government web resources and services.